Location: Castillon
(43.0896°N, 0.2156°E)
Time: 10:15:22
(UTC+00:00)

Cosmos 1544 Rocket - Pass Details

Date: 28 October 2021
Orbit: 603 x 631 km, 82.5° (Epoch: 08 December)

Event Time Altitude Azimuth Distance (km) Brightness Sun altitude
Rises 18:26:38 0° 217° (SW) 2,912 7.6 -17.0°
Reaches altitude 10° 18:29:11 10° 230° (SW) 2,009 6.9 -17.5°
Maximum altitude 18:32:54 26° 287° (WNW) 1,257 5.9 -18.2°
Drops below altitude 10° 18:36:39 10° 344° (NNW) 2,016 6.4 -18.9°
Sets 18:39:13 0° 357° (N) 2,924 7.1 -19.3°
